BALL1 LFMF-LFMF

Flight info

Callsign BALL1
Flight time 0h 2m
Altitude 1
Route VFR
Aircraft BALL/L-V/N

Departure

Time 2026-04-24 14:01
Airport Fayence-Tourrettes Airfield (LFMF)

Arrival

Time 2026-04-24 14:03
Airport Fayence-Tourrettes Airfield (LFMF)
Time Latitude Longitude Altitude Speed Heading
2026-04-24 13:53 43.61026 6.69261 727 ft 1 kts 101°
2026-04-24 13:54 43.61076 6.69243 796 ft 12 kts 102°
2026-04-24 13:54 43.61142 6.69223 864 ft 6 kts 104°
2026-04-24 13:54 43.61166 6.69213 915 ft 4 kts 104°
2026-04-24 13:56 43.61207 6.69200 979 ft 3 kts 122°
2026-04-24 13:56 43.61245 6.69201 1138 ft 4 kts 124°
2026-04-24 13:56 43.61270 6.69305 1537 ft 11 kts 94°
2026-04-24 13:56 43.61262 6.69334 2416 ft 13 kts 36°
2026-04-24 13:57 43.61271 6.69329 3194 ft 15 kts
2026-04-24 13:57 43.61270 6.69353 3780 ft 15 kts 44°
2026-04-24 13:57 43.61277 6.69370 4406 ft 17 kts 87°
2026-04-24 13:57 43.61280 6.69385 5103 ft 20 kts 64°
2026-04-24 13:58 43.61286 6.69471 5769 ft 43 kts 52°
2026-04-24 13:58 43.61390 6.70105 6495 ft 26 kts 101°
2026-04-24 13:58 43.61337 6.70178 6941 ft 15 kts 50°
2026-04-24 13:58 43.61271 6.70252 7130 ft 12 kts 37°
2026-04-24 13:59 43.61232 6.70293 7283 ft 10 kts 36°
2026-04-24 13:59 43.61154 6.70365 7612 ft 11 kts 34°
2026-04-24 13:59 43.61106 6.70404 7829 ft 7 kts 32°
2026-04-24 13:59 43.61060 6.70438 8047 ft 9 kts 30°
2026-04-24 14:00 43.61005 6.70467 8307 ft 7 kts 26°
2026-04-24 14:00 43.60956 6.70485 8559 ft 9 kts 25°
2026-04-24 14:00 43.60910 6.70493 8790 ft 6 kts 24°
2026-04-24 14:00 43.60870 6.70494 9044 ft 5 kts 23°
2026-04-24 14:01 43.60863 6.70502 9261 ft 3 kts 24°
2026-04-24 14:01 43.61420 6.70536 9548 ft 136 kts
2026-04-24 14:01 43.62455 6.70591 9757 ft 148 kts 21°
2026-04-24 14:01 43.63831 6.70664 9989 ft 145 kts 13°
2026-04-24 14:02 43.63928 6.70677 10063 ft 10 kts 37°
2026-04-24 14:02 43.63876 6.70688 10145 ft 9 kts 40°
2026-04-24 14:02 43.63828 6.70703 10275 ft 8 kts 39°
2026-04-24 14:02 43.63775 6.70714 10386 ft 8 kts 38°
2026-04-24 14:03 43.63707 6.70716 10465 ft 8 kts 35°
2026-04-24 14:03 43.63643 6.70710 10517 ft 12 kts 34°
2026-04-24 14:03 43.61015 6.69346 10523 ft 0 kts 357°
2026-04-24 14:04 0.01226 0.00001 53808 ft 0 kts